Two Harbors, MN

1:50 PM CST on November 21, 2017 (GMT -0600)
Helgeson

Weather History for KTWM - February, 2013

Change the Weather History Date:

Sunday, February 3, 2013

  Actual Average Record
Temperature  
Mean Temperature 2 °F -  
Max Temperature 8 °F 22 °F 48 °F (1991)
Min Temperature -5 °F 4 °F -26 °F (1970)
Degree Days  
Heating Degree Days 64    
Moisture  
Dew Point -9 °F    
Average Humidity 59    
Maximum Humidity 72    
Minimum Humidity 44    
Precipitation  
Precipitation 0.00 in - - ()
Sea Level Pressure  
Sea Level Pressure 29.90 in    
Wind  
Wind Speed 5 mph (WNW)    
Max Wind Speed 12 mph    
Max Gust Speed 21 mph    
Visibility 10 miles    
Events Snow    
Averages and records for this station are not official NWS values.
T = Trace of Precipitation, MM = Missing Value Source: NWS Daily Summary

Daily Weather History Graph

Daily Weather History Graph

Search for Another Location

Airport or City:

Trip Planner

Search our weather history database for the weather conditions in past years. The results will help you decide how hot, cold, wet, or windy it might be!

Date:

Astronomy

Feb. 03, 2013 Rise Set
Actual Time 7:29 AM CST 5:13 PM CST
Civil Twilight 6:56 AM CST 5:45 PM CST
Nautical Twilight 6:20 AM CST 6:22 PM CST
Astronomical Twilight 5:44 AM CST 6:57 PM CST
Moon 12:58 AM CST (2/3) 10:48 AM CST (2/3)
Length of Visible Light 10h 48m
Length of Day
9h 44m
Waning Gibbous, 48% of the Moon is Illuminated
Feb 3
Waning Gibbous
Feb 10
New
Feb 17
First Quarter
Feb 25
Full
Mar 4
Last Quarter

Hourly Weather History & Observations

Time (CST) Temp. Windchill Dew Point Humidity Pressure Visibility Wind Dir Wind Speed Gust Speed Precip Events Conditions
12:12 AM 5.0 °F -5.6 °F -4.0 °F 66% 29.86 in 10.0 mi West 5.8 mph - N/A   Overcast
12:31 AM 5.0 °F -4.1 °F -4.0 °F 66% 29.85 in 10.0 mi West 4.6 mph - N/A   Overcast
12:51 AM 5.0 °F -5.6 °F -4.0 °F 66% 29.85 in 10.0 mi West 5.8 mph - N/A Snow Light Snow
1:11 AM 5.0 °F -4.1 °F -4.0 °F 66% 29.85 in 10.0 mi West 4.6 mph - N/A   Overcast
1:31 AM 5.0 °F -2.1 °F -2.2 °F 72% 29.84 in 10.0 mi West 3.5 mph - N/A   Overcast
2:11 AM 6.8 °F -4.8 °F -2.2 °F 67% 29.84 in 10.0 mi West 6.9 mph - N/A   Overcast
2:32 AM 5.0 °F -4.1 °F -2.2 °F 72% 29.83 in 10.0 mi West 4.6 mph - N/A   Overcast
3:11 AM 5.0 °F -6.9 °F -2.2 °F 72% 29.83 in 4.0 mi West 6.9 mph - N/A   Haze
3:51 AM 5.0 °F -6.9 °F -4.0 °F 66% 29.83 in 10.0 mi West 6.9 mph - N/A   Overcast
4:11 AM 5.0 °F -6.9 °F -4.0 °F 66% 29.84 in 10.0 mi West 6.9 mph - N/A   Overcast
4:32 AM 3.2 °F -6.2 °F -5.8 °F 66% 29.85 in 10.0 mi West 4.6 mph - N/A   Mostly Cloudy
4:51 AM 3.2 °F -6.2 °F -5.8 °F 66% 29.86 in 10.0 mi West 4.6 mph - N/A   Overcast
5:12 AM 3.2 °F -9.1 °F -5.8 °F 66% 29.86 in 10.0 mi West 6.9 mph - N/A   Overcast
5:31 AM 1.4 °F -12.5 °F -7.6 °F 66% 29.87 in 10.0 mi WNW 8.1 mph - N/A   Mostly Cloudy
6:12 AM 1.4 °F -11.3 °F -7.6 °F 66% 29.87 in 10.0 mi West 6.9 mph - N/A   Scattered Clouds
6:31 AM -0.4 °F -14.7 °F -7.6 °F 72% 29.88 in 10.0 mi NW 8.1 mph - N/A   Clear
6:51 AM -0.4 °F -10.4 °F -9.4 °F 66% 29.88 in 10.0 mi WNW 4.6 mph - N/A   Clear
7:12 AM -0.4 °F -12.0 °F -9.4 °F 66% 29.89 in 10.0 mi WNW 5.8 mph - N/A   Clear
7:31 AM -0.4 °F -10.4 °F -9.4 °F 66% 29.89 in 10.0 mi NW 4.6 mph - N/A   Clear
7:51 AM -0.4 °F -12.0 °F -9.4 °F 66% 29.90 in 10.0 mi WNW 5.8 mph - N/A   Clear
8:12 AM -0.4 °F -12.0 °F -9.4 °F 66% 29.91 in 10.0 mi WNW 5.8 mph - N/A   Clear
8:31 AM -0.4 °F -15.7 °F -11.2 °F 60% 29.91 in 10.0 mi NW 9.2 mph 17.3 mph N/A   Clear
8:51 AM 1.4 °F -11.3 °F -9.4 °F 61% 29.91 in 10.0 mi NW 6.9 mph - N/A   Clear
9:12 AM 1.4 °F -14.5 °F -11.2 °F 56% 29.93 in 10.0 mi NW 10.4 mph 19.6 mph N/A   Clear
9:31 AM 1.4 °F -11.3 °F -9.4 °F 61% 29.93 in 10.0 mi WNW 6.9 mph 20.7 mph N/A   Clear
9:51 AM 1.4 °F -15.3 °F -11.2 °F 56% 29.93 in 10.0 mi WNW 11.5 mph 19.6 mph N/A   Clear
10:12 AM 1.4 °F -13.5 °F -11.2 °F 56% 29.93 in 10.0 mi WNW 9.2 mph 18.4 mph N/A   Clear
10:52 AM 5.0 °F -9.1 °F -9.4 °F 52% 29.93 in 10.0 mi WNW 9.2 mph - N/A   Clear
11:11 AM 5.0 °F -5.6 °F -9.4 °F 52% 29.93 in 10.0 mi WNW 5.8 mph 9.2 mph N/A   Clear
11:32 AM 5.0 °F -6.9 °F -9.4 °F 52% 29.93 in 10.0 mi WNW 6.9 mph 18.4 mph N/A   Clear
11:51 AM 6.8 °F -6.9 °F -9.4 °F 48% 29.93 in 10.0 mi WNW 9.2 mph 17.3 mph N/A   Clear
12:11 PM 6.8 °F -5.9 °F -9.4 °F 48% 29.92 in 10.0 mi WNW 8.1 mph 18.4 mph N/A   Clear
12:32 PM 6.8 °F -5.9 °F -9.4 °F 48% 29.92 in 10.0 mi WNW 8.1 mph - N/A   Clear
12:51 PM 6.8 °F -4.8 °F -9.4 °F 48% 29.92 in 10.0 mi WNW 6.9 mph 16.1 mph N/A   Clear
1:11 PM 8.6 °F -4.7 °F -9.4 °F 44% 29.92 in 10.0 mi NW 9.2 mph - N/A   Clear
1:32 PM 8.6 °F -2.6 °F -9.4 °F 44% 29.91 in 10.0 mi WNW 6.9 mph - N/A   Clear
1:51 PM 8.6 °F -4.7 °F -9.4 °F 44% 29.91 in 10.0 mi WNW 9.2 mph 17.3 mph N/A   Clear
2:11 PM 8.6 °F -4.7 °F -9.4 °F 44% 29.91 in 10.0 mi NW 9.2 mph 16.1 mph N/A   Clear
2:51 PM 8.6 °F 0.1 °F -9.4 °F 44% 29.90 in 10.0 mi West 4.6 mph - N/A   Clear
3:11 PM 8.6 °F -3.7 °F -9.4 °F 44% 29.91 in 10.0 mi West 8.1 mph - N/A   Clear
3:31 PM 8.6 °F -1.3 °F -9.4 °F 44% 29.91 in 10.0 mi West 5.8 mph - N/A   Clear
3:51 PM 8.6 °F -2.6 °F -9.4 °F 44% 29.91 in 10.0 mi NW 6.9 mph - N/A   Clear
4:11 PM 8.6 °F -1.3 °F -9.4 °F 44% 29.91 in 10.0 mi WNW 5.8 mph - N/A   Clear
4:51 PM 6.8 °F -0.1 °F -9.4 °F 48% 29.91 in 10.0 mi West 3.5 mph - N/A   Clear
5:11 PM 5.0 °F -2.1 °F -9.4 °F 52% 29.92 in 10.0 mi WNW 3.5 mph - N/A   Clear
5:51 PM 1.4 °F - -11.2 °F 56% 29.92 in 10.0 mi Calm Calm - N/A   Clear
6:11 PM 1.4 °F - -11.2 °F 56% 29.92 in 10.0 mi Calm Calm - N/A   Clear
6:32 PM 1.4 °F - -11.2 °F 56% 29.92 in 10.0 mi Calm Calm - N/A   Clear
6:51 PM 1.4 °F - -11.2 °F 56% 29.92 in 10.0 mi Calm Calm - N/A   Clear
7:31 PM -0.4 °F - -11.2 °F 60% 29.93 in 10.0 mi Calm Calm - N/A   Clear
7:51 PM -0.4 °F - -11.2 °F 60% 29.94 in 10.0 mi Calm Calm - N/A   Clear
8:11 PM -0.4 °F - -11.2 °F 60% 29.94 in 10.0 mi Calm Calm - N/A   Clear
8:31 PM -0.4 °F - -11.2 °F 60% 29.94 in 10.0 mi Calm Calm - N/A   Clear
8:51 PM -0.4 °F - -11.2 °F 60% 29.94 in 10.0 mi Calm Calm - N/A   Clear
9:11 PM -0.4 °F - -11.2 °F 60% 29.94 in 10.0 mi Calm Calm - N/A   Clear
9:31 PM -2.2 °F - -11.2 °F 66% 29.95 in 10.0 mi Calm Calm - N/A   Clear
9:51 PM -2.2 °F - -11.2 °F 66% 29.94 in 10.0 mi Calm Calm - N/A   Clear
10:11 PM -2.2 °F - -13.0 °F 60% 29.94 in 10.0 mi Calm Calm - N/A   Clear
10:51 PM -4.0 °F -12.4 °F -13.0 °F 65% 29.94 in 10.0 mi West 3.5 mph - N/A   Clear
11:11 PM -5.8 °F - -13.0 °F 71% 29.95 in 10.0 mi Calm Calm - N/A   Clear
11:31 PM -5.8 °F - -13.0 °F 71% 29.95 in 10.0 mi Calm Calm - N/A   Clear
11:52 PM -5.8 °F - -13.0 °F 71% 29.96 in 10.0 mi Calm Calm - N/A   Clear